Location: Chervonnoye
(48.6000°N, 34.4000°E)
Time: 14:43:14
(UTC+00:00)

USA 281 - Pass Details

Date: 23 November 2020
Orbit: 1074 x 1084 km, 106.0° (Epoch: 25 January)

Event Time Altitude Azimuth Distance (km) Brightness Sun altitude
Rises 16:56:32 0° 178° (S) 3,858 6.1 -29.6°
Reaches altitude 10° 16:59:13 10° 186° (S) 2,905 5.5 -30.0°
Maximum altitude 17:05:16 40° 254° (WSW) 1,548 4.4 -31.0°
Drops below altitude 10° 17:11:21 10° 322° (NW) 2,920 5.9 -32.0°
Sets 17:14:05 0° 330° (NNW) 3,880 6.6 -32.5°
